Location: Bennemühlen
(52.5740°N, 9.7135°E)
Time: 00:16:32
(UTC+00:00)

A-11 Canister half - Pass Details

Date: 27 February 2026
Orbit: 1512 x 1687 km, 47.2° (Epoch: 8 March)

Event Time Altitude Azimuth Distance (km) Brightness Sun altitude
Rises 17:00:44 0° 208° (SSW) 4,914 12.3 -1.5°
Reaches altitude 10° 17:04:17 10° 199° (SSW) 3,938 11.6 -2.0°
Maximum altitude 17:12:53 33° 141° (SE) 2,564 10.0 -3.3°
Drops below altitude 10° 17:21:27 10° 83° (E) 3,933 10.5 -4.6°
Enters shadow 17:23:05 - 78° (ENE) 4,373 10.7 -4.8°
Sets 17:24:59 0° 74° (ENE) 4,907 - -5.1°
